[[{"header":{"parameterUnit":"m.s-1","parameterCategory":1,"la1":30.2991,"la2":30.254,"lo1":-89.0895,"lo2":-89.0444,"dy":0.0017,"dx":0.0017,"nx":28,"ny":28,"refTime":"2024-10-12T09:00:00:Z","depth":0,"parameterNumber":2,"parameterNumberName":"U-component_of_WINDS"},"data":[0,0,0,0,0,0,0,0,0,0,0,0,0,0,0,0,0,0,0,0,0,0,0,0,0,0,0,0,0,0,0,0,0,0,0,0,0,0,0,0,0,0,0,0,0,0,0,0,0,0,0,0,0,0,0,0,0,0,2.0912,2.0914,0,2.1046,2.1047,2.1049,2.1083,2.1082,2.1081,2.1081,2.1215,2.1219,2.1223,0,0,0,0,0,0,0,0,0,0,0,0,0,2.0683,2.0687,2.0912,2.0914,2.0915,2.1045,2.1047,2.1049,2.1083,2.1082,2.1081,2.108,2.1213,2.1218,2.1223,0,0,0,0,0,0,0,0,0,0,0,0,0,2.0796,2.0689,2.0912,2.0948,2.0953,2.1045,2.1047,2.105,2.1083,2.1082,2.1081,2.108,2.1211,2.1218,2.1224,2.1289,0,0,2.1244,2.1247,0,0,0,0,0,0,0,0,2.079,2.0805,2.0941,2.0946,2.0951,2.1047,2.1016,2.113,2.1084,2.1034,2.1081,2.1079,2.1159,2.117,2.1198,2.1295,2.1301,2.1245,2.1248,2.1251,2.1253,0,0,0,0,0,0,0,2.0782,2.0799,2.0965,2.0943,2.0949,2.0957,2.0971,2.1038,2.1102,2.1038,2.1041,2.1056,2.1162,2.1191,2.1201,2.1303,2.1244,2.125,2.1254,2.1257,2.1459,2.146,0,0,0,0,0,0,2.0768,2.0792,2.0961,2.0969,2.0866,2.0962,2.0978,2.1017,2.1101,2.1113,2.1057,2.1057,2.1181,2.1194,2.1206,2.1286,2.1251,2.1257,2.1261,2.1457,2.1459,2.1461,0,0,0,0,0,0,2.0763,2.0783,2.0955,2.0881,2.0904,2.0967,2.101,2.102,2.105,2.1116,2.1127,2.1076,2.118,2.1197,2.1268,2.1291,2.126,2.1266,2.1456,2.1458,2.146,2.1448,0,0,0,0,0,0,2.0756,2.0781,2.0807,2.0882,2.0908,2.1016,2.1012,2.1024,2.1061,2.1063,2.1136,2.1147,2.1181,2.1258,2.1274,2.13,2.1271,2.1454,2.1457,2.1459,2.1446,2.1449,2.1452,0,0,0,0,0,2.0748,2.0798,2.0808,2.0828,2.0942,2.1017,2.1032,2.107,2.1063,2.1089,2.1131,2.1145,2.1287,2.1265,2.1284,2.1311,2.1453,2.1456,2.1459,2.1445,2.1449,2.1452,0,0,0,0,0,0,2.0723,2.0808,2.082,2.0896,2.0949,2.1023,2.1057,2.1073,2.1129,2.1127,2.1172,2.1189,2.1256,2.1291,2.1266,2.1378,2.137,2.1377,2.1352,2.1356,2.1359,2.1348,2.1277,0,0,0,0,0,2.0726,2.0781,2.0852,2.0912,2.0938,2.0993,2.1027,2.1052,2.1109,2.1131,2.1179,2.1232,2.1288,2.1325,2.1381,2.1452,2.1468,2.148,2.1483,2.1485,2.149,2.1529,2.1535,2.1472,2.1472,2.1472,0,0,2.0733,2.0786,2.0818,2.0908,2.0952,2.1007,2.1011,2.1069,2.111,2.114,2.1209,2.1246,2.1309,2.138,2.1414,2.1411,2.1511,2.1489,2.149,2.1495,2.1533,2.1539,2.1545,2.1474,2.1474,2.1473,0,0,2.0773,2.082,2.0874,2.0919,2.0986,2.1022,2.1035,2.1107,2.1132,2.1203,2.1226,2.1275,2.1372,2.1415,2.145,2.1507,2.1521,2.1524,2.1538,2.1575,2.158,2.1585,2.1604,2.161,2.1529,2.1529,2.1529,0,2.0773,2.0858,2.09,2.0957,2.0995,2.1026,2.108,2.1121,2.1202,2.1227,2.1224,2.1346,2.139,2.1471,2.1485,2.1513,2.1528,2.1515,2.1576,2.1582,2.1586,2.1605,2.1612,2.1529,2.1529,2.1529,2.1529,0,2.0853,2.0911,2.0947,2.1026,2.1068,2.1124,2.1173,2.1211,2.1233,2.1269,2.134,2.1395,2.1462,2.1483,2.1505,2.1567,2.1563,2.1568,2.156,2.1592,2.1609,2.1617,2.1529,2.1529,2.1529,2.1529,0,0,2.088,2.0982,2.0994,2.103,2.1106,2.1152,2.1208,2.1274,2.1305,2.1361,2.1408,2.1489,2.1494,2.1533,2.156,2.1593,2.1633,2.1593,2.1595,2.1597,2.1704,2.1699,2.1706,2.1644,2.1645,2.1646,2.1698,0,2.0928,2.1031,2.1071,2.1154,2.1208,2.1238,2.1287,2.1338,2.1374,2.1423,2.1462,2.1519,2.1521,2.1545,2.1579,2.1621,2.1655,2.1618,2.1686,2.1688,2.1668,2.1716,2.1711,2.1757,2.1705,2.1706,2.1707,0,2.0998,2.1055,2.1144,2.1214,2.1238,2.1281,2.1345,2.1392,2.1451,2.1475,2.1519,2.1543,2.1602,2.1592,2.1673,2.1647,2.1678,2.1702,2.1705,2.1712,2.1698,2.1722,2.1773,2.1779,2.1719,2.1718,2.1717,0,2.1007,2.1106,2.1171,2.1201,2.1285,2.1314,2.135,2.1408,2.1445,2.15,2.1525,2.1586,2.1619,2.1666,2.1706,2.1695,2.1783,2.1776,2.1802,2.1801,2.1818,2.1816,2.1873,2.184,2.184,2.184,2.184,0,2.1056,2.1108,2.1176,2.1216,2.1276,2.1321,2.1378,2.1416,2.1467,2.1514,2.1544,2.1587,2.1639,2.1689,2.1721,2.1782,2.1797,2.1817,2.1824,2.1813,2.181,2.1832,2.1829,2.1842,2.1842,2.1841,2.1841,0,2.1074,2.1122,2.1195,2.1269,2.1288,2.1329,2.1391,2.143,2.1467,2.1527,2.1543,2.1601,2.1661,2.1706,2.1784,2.1805,2.187,2.1879,2.185,2.1854,2.1877,2.1873,2.1948,2.196,2.1921,2.1921,2.1922,0,2.1102,2.1143,2.1221,2.1255,2.1291,2.1346,2.1384,2.143,2.1468,2.1539,2.1569,2.1632,2.1684,2.1778,2.1826,2.1885,2.1895,2.1917,2.1904,2.1891,2.1893,2.189,2.1893,2.1918,2.1918,2.1918,2.1919,0,2.1144,2.1166,2.1221,2.1284,2.1329,2.138,2.1432,2.1458,2.1513,2.1555,2.1617,2.1657,2.1737,2.1798,2.1862,2.1898,2.1917,2.1923,2.1932,2.192,2.1901,2.191,2.1853,2.192,2.192,2.192,2.192,2.192,2.1167,2.1205,2.1266,2.1325,2.1369,2.1417,2.1458,2.15,2.1553,2.1622,2.1646,2.171,2.1767,2.1856,2.1892,2.1942,2.1942,2.1955,2.1958,2.196,2.1959,2.1894,2.1954,2.1954,2.1954,2.1954,2.1954,0,2.121,2.1251,2.1305,2.1377,2.1424,2.144,2.1498,2.1535,2.1591,2.1644,2.1695,2.1766,2.1825,2.1878,2.194,2.1969,2.1979,2.1984,2.1981,2.1989,2.1956,2.1941,2.1974,2.1974,2.1974,2.1974,2.1974,2.1974,2.1238,2.1302,2.1331,2.1417,2.1457,2.1521,2.1553,2.1596,2.1638,2.1717,2.1766,2.1801,2.1854,2.1919,2.1974,2.1988,2.2008,2.201,2.2026,2.1994,2.1991,2.1988,2.1975,2.2014,2.2015,2.2054,2.2055,2.2055]},{"header":{"parameterUnit":"m.s-1","parameterCategory":1,"la1":30.2991,"la2":30.254,"lo1":-89.0895,"lo2":-89.0444,"dy":0.0017,"dx":0.0017,"nx":28,"ny":28,"refTime":"2024-10-12T09:00:00:Z","depth":0,"parameterNumber":3,"parameterNumberName":"V-component_of_WINDS"},"data":[0,0,0,0,0,0,0,0,0,0,0,0,0,0,0,0,0,0,0,0,0,0,0,0,0,0,0,0,0,0,0,0,0,0,0,0,0,0,0,0,0,0,0,0,0,0,0,0,0,0,0,0,0,0,0,0,0,0,3.8597,3.8597,0,3.86,3.86,3.86,3.8559,3.8558,3.8557,3.8556,3.8559,3.856,3.8561,0,0,0,0,0,0,0,0,0,0,0,0,0,3.8555,3.8556,3.8597,3.8597,3.8597,3.86,3.86,3.86,3.8559,3.8558,3.8557,3.8555,3.8558,3.856,3.8561,0,0,0,0,0,0,0,0,0,0,0,0,0,3.8567,3.8556,3.8597,3.8577,3.8575,3.86,3.86,3.86,3.856,3.8558,3.8556,3.8555,3.8558,3.8559,3.8561,3.8605,0,0,3.8566,3.8567,0,0,0,0,0,0,0,0,3.8566,3.8568,3.858,3.8578,3.8576,3.8577,3.8586,3.8601,3.856,3.8565,3.8556,3.8554,3.8566,3.8567,3.8571,3.8605,3.8605,3.8566,3.8567,3.8568,3.8568,0,0,0,0,0,0,0,3.8565,3.8568,3.8598,3.858,3.8578,3.8567,3.8567,3.8589,3.8575,3.8565,3.8562,3.8563,3.8565,3.857,3.8571,3.8605,3.8566,3.8568,3.8569,3.8569,3.8673,3.8674,0,0,0,0,0,0,3.8567,3.8568,3.8598,3.8598,3.8567,3.857,3.8569,3.8579,3.8575,3.8573,3.8564,3.8561,3.8568,3.8569,3.8571,3.862,3.8568,3.857,3.857,3.8671,3.8673,3.8675,0,0,0,0,0,0,3.8567,3.857,3.8598,3.8582,3.8585,3.8572,3.8583,3.858,3.8584,3.8574,3.8572,3.8572,3.8566,3.8569,3.8596,3.862,3.857,3.8572,3.8669,3.8672,3.8674,3.872,0,0,0,0,0,0,3.8566,3.857,3.8587,3.8583,3.8586,3.8623,3.8584,3.8581,3.8587,3.8583,3.8581,3.8579,3.8565,3.8594,3.8598,3.8621,3.8573,3.8667,3.867,3.8673,3.8717,3.8724,3.8731,0,0,0,0,0,3.8564,3.86,3.8588,3.8592,3.8606,3.8625,3.8626,3.861,3.8589,3.8606,3.8599,3.8579,3.8617,3.8597,3.8601,3.8625,3.8665,3.8669,3.8673,3.8713,3.8723,3.8731,0,0,0,0,0,0,3.8608,3.8599,3.8586,3.8622,3.8624,3.8618,3.8638,3.8621,3.8629,3.8625,3.8605,3.8605,3.8635,3.8633,3.8611,3.8667,3.8637,3.8642,3.8667,3.8675,3.8682,3.8682,3.8574,0,0,0,0,0,3.8622,3.8638,3.8629,3.8662,3.8664,3.8651,3.8658,3.8646,3.8647,3.8648,3.8644,3.8646,3.8658,3.8667,3.8678,3.8717,3.8715,3.8735,3.8742,3.8748,3.8752,3.8771,3.878,3.8688,3.8688,3.8688,0,0,3.8651,3.8648,3.8659,3.8671,3.8671,3.8687,3.8652,3.8671,3.8683,3.8651,3.8676,3.8673,3.8675,3.8707,3.8722,3.8707,3.8777,3.8753,3.8758,3.8759,3.8776,3.8785,3.8793,3.869,3.869,3.869,0,0,3.8711,3.8711,3.8738,3.8739,3.874,3.8731,3.8737,3.8733,3.8729,3.8755,3.8731,3.8745,3.8767,3.8768,3.8772,3.8832,3.8813,3.8836,3.8873,3.8891,3.8899,3.8905,3.8925,3.8933,3.8841,3.8841,3.8841,0,3.8747,3.8771,3.8753,3.8774,3.8779,3.8751,3.8777,3.8779,3.8783,3.8787,3.877,3.8797,3.8796,3.8828,3.8842,3.8847,3.8853,3.8836,3.8899,3.8905,3.8911,3.893,3.8938,3.8843,3.8843,3.8843,3.8843,0,3.8814,3.8831,3.8852,3.8856,3.8864,3.8887,3.8872,3.8882,3.8869,3.8862,3.8887,3.8885,3.8894,3.8901,3.8889,3.8931,3.8922,3.8903,3.8872,3.8923,3.894,3.8947,3.8847,3.8846,3.8846,3.8845,0,0,3.8902,3.8896,3.8904,3.8905,3.8904,3.8916,3.8938,3.8947,3.8955,3.8959,3.8976,3.8995,3.8977,3.8981,3.8968,3.8985,3.9031,3.8963,3.8963,3.8975,3.9077,3.909,3.9099,3.9019,3.902,3.9021,3.9076,0,3.896,3.8996,3.898,3.9018,3.9032,3.9006,3.9024,3.9025,3.9019,3.903,3.9023,3.9036,3.9012,3.9014,3.9029,3.9022,3.9051,3.9018,3.9034,3.9034,3.9033,3.9108,3.9123,3.9175,3.9083,3.9084,3.9085,0,3.9032,3.9038,3.9077,3.9072,3.9077,3.9094,3.9101,3.9112,3.9112,3.9106,3.9111,3.9094,3.9114,3.9085,3.9112,3.909,3.9096,3.9093,3.9095,3.9095,3.9062,3.9109,3.9191,3.9199,3.9096,3.9095,3.9094,0,3.909,3.9109,3.9134,3.9136,3.9131,3.9143,3.9142,3.9141,3.9147,3.9152,3.9156,3.9164,3.9168,3.9175,3.9161,3.9141,3.9189,3.9159,3.9184,3.9185,3.9195,3.9194,3.9278,3.9201,3.92,3.92,3.92,0,3.9156,3.918,3.916,3.9175,3.9202,3.9184,3.921,3.9206,3.9205,3.9218,3.9196,3.921,3.9191,3.9202,3.9191,3.9215,3.9217,3.9212,3.9209,3.9214,3.9214,3.9216,3.9212,3.9202,3.9202,3.9202,3.9201,0,3.9226,3.9213,3.9239,3.9232,3.923,3.925,3.9244,3.9257,3.9249,3.9267,3.927,3.9257,3.927,3.9256,3.9268,3.926,3.9291,3.9284,3.9291,3.9288,3.9314,3.9311,3.9401,3.9411,3.9328,3.9329,3.933,0,3.9268,3.9285,3.928,3.9287,3.9287,3.93,3.9305,3.9288,3.9295,3.9296,3.931,3.932,3.9327,3.9348,3.934,3.9348,3.9339,3.937,3.934,3.9344,3.9338,3.9337,3.9338,3.9376,3.9377,3.9377,3.9378,0,3.9343,3.9336,3.9345,3.9351,3.9359,3.9363,3.9366,3.9374,3.9356,3.9365,3.9376,3.9382,3.9393,3.9403,3.9409,3.9407,3.939,3.9388,3.9394,3.9398,3.9401,3.9398,3.9306,3.9385,3.9385,3.9384,3.9384,3.9383,3.9399,3.9413,3.9411,3.9422,3.9422,3.9425,3.9437,3.943,3.944,3.9447,3.9437,3.9451,3.945,3.9456,3.9456,3.9467,3.9454,3.9463,3.9465,3.9468,3.9471,3.94,3.9469,3.9468,3.9468,3.9468,3.9468,0,3.9472,3.9469,3.9479,3.9483,3.9492,3.9474,3.9476,3.9484,3.9497,3.9498,3.9505,3.9518,3.9528,3.952,3.9528,3.9538,3.953,3.9541,3.9539,3.9539,3.9483,3.9476,3.9547,3.9547,3.9547,3.9547,3.9547,3.9547,3.9511,3.9533,3.9526,3.9548,3.9545,3.9559,3.9561,3.9564,3.9564,3.9579,3.9587,3.9582,3.9579,3.9586,3.9594,3.9592,3.9595,3.9608,3.9603,3.9551,3.9543,3.9535,3.9529,3.961,3.961,3.9658,3.9658,3.9659]}]]